{"data":{"norad_id":65697,"intl_designator":"2025-212X","name":"STARLINK-35113","alt_names":[],"object_type":"PAYLOAD","status":"ACTIVE","operator":null,"country":"US","launch_date":"2025-09-21","launch_site_code":"AFETR","launch_vehicle":null,"mission":null,"orbit_class":"UNKNOWN","rcs_meters":null,"size_class":null,"mass_kg":null,"dimensions":null,"purposes":["comms"],"wikipedia_slug":null,"has_3d_model":false,"image_url":null,"decayed_at":null,"tle_current":{"epoch":"2026-09-19T22:53:17.306592Z","epoch_age_seconds":155929,"freshness":"FRESH","line1":"1 65697U 25212X   26262.95367253  .00009571  00000+0  29396-3 0  9996","line2":"2 65697  53.1568 158.5541 0001084  96.7234 263.3892 15.34406763 57055","mean_motion":15.34406763,"eccentricity":0.0001084,"inclination_deg":53.1568,"raan_deg":158.5541,"arg_perigee_deg":96.7234,"mean_anomaly_deg":263.3892,"bstar":0.00029396,"rev_number":5705,"period_min":93.847344441091,"perigee_km":461.94159431661,"apogee_km":463.42468412279,"semimajor_km":6840.8201392197,"source":"CELESTRAK","updated_at":"2026-09-21T09:00:35.689472Z"}}}